User: anonymous   Login
Location: Unspecified
(0.0000°N, 0.0000°E)
Time: 21:18:04
(UTC+00:00)
Language:

CZ-3B DEB - Orbit

View from above orbital plane
View from above orbital plane
View from above satellite
View from above satellite

Ground track
Ground track

The orbit data is extracted from the following two-line orbital elements,

1 40186U 11077K   20271.26454399 -.00000230 +00000-0 +00000-0 0  9995
2 40186 025.2547 249.3203 7316884 092.1874 003.1676 01.88703872059671
Epoch (UTC): 27 September 2020 06:20:56
Eccentricity: 0.7316884
inclination: 25.2547°
perigee height: 1044 km
apogee height: 41523 km
right ascension of ascending node: 249.3203°
argument of perigee: 92.1874°
revolutions per day: 1.88703872
mean anomaly at epoch: 3.1676°
orbit number at epoch: 5967

The dashed part of the orbit path shows where the satellite is in the earth's shadow,  

DLR